Hourly Data Report for October 02, 2018

MONTREAL INTL A
QUEBEC
Current Station Operator: NAVCAN

45°28'14.000" N
73°44'27.000" W
36.00 m
7025251
71627
YUL

Download Data

Hourly Data (October 2018)
Hourly Data Report for October 2, 2018
TIME
LST
Temp Definition
°C
Dew Point Definition
°C
Rel Hum Definition
%
Precip. Amount Definition
mm

Wind Dir Definition
10's deg

Wind Spd Definition
km/h
Visibility Definition
km
Stn Press Definition
kPa
Hmdx Definition


Wind Chill Definition


Weather Definition


00:00 10.3 4.0 65   3 18 24.1 102.28     LegendNANA
01:00 10.0 3.9 65   5 20 24.1 102.24     Rain
02:00 8.3 5.6 83   4 13 24.1 102.23     Rain
03:00 8.3 5.7 83   5 14 24.1 102.14     Rain
04:00 8.1 6.0 86   6 17 16.1 102.02     Rain
05:00 8.0 6.5 90   7 15 16.1 102.00     Rain
06:00 7.7 6.8 94   4 14 24.1 101.93     Rain
07:00 7.8 7.0 95   4 22 24.1 101.87     Rain
08:00 8.2 7.3 95   5 20 16.1 101.80     Rain
09:00 8.6 7.8 94   4 22 16.1 101.74     Rain
10:00 9.0 8.0 94   4 25 24.1 101.65     Cloudy
11:00 9.1 8.3 95   4 22 16.1 101.53     Drizzle
12:00 9.4 8.6 95   4 23 16.1 101.47     Drizzle
13:00 10.0 9.2 94   4 22 16.1 101.37     Drizzle
14:00 10.4 9.6 94   3 23 24.1 101.31     Drizzle
15:00 10.6 9.9 96   3 19 8.1 101.25     Drizzle, Fog
16:00 10.6 9.9 95   3 21 9.7 101.24     Drizzle, Fog
17:00 10.5 9.7 95   3 23 12.9 101.23     Drizzle
18:00 10.3 9.5 95   3 21 9.7 101.19     Drizzle, Fog
19:00 10.2 9.4 95   4 26 12.9 101.22     Drizzle
20:00 9.9 9.2 96   3 26 9.7 101.21     Drizzle, Fog
21:00 9.9 9.2 95   3 26 12.9 101.18     Drizzle
22:00 9.8 9.1 95   3 21 24.1 101.16     Cloudy
23:00 9.5 8.9 96   2 18 24.1 101.19     LegendNANA

Notes on Data Quality.

Legend

  • E = Estimated
  • M = Missing
  • NA = Not Available*
  • [empty] = Indicates an unobserved value
Date modified: